DW4221 Weather Reports


Display with metric or nautical units.
time (UTC)temp
F
wind
direction
speed
MPH
gust
MPH
rain 1hr
in
rain 24hr
in
rain mn
in
humidity
%
barometer
mb
20260902194602 76 114 0.0 5.0 0.00 0.00 0.00 56 1014.4
20260902193058 77 346 3.0 9.0 0.00 0.00 0.00 54 1014.5
20260902191605 76 315 0.0 5.0 0.00 0.00 0.00 58 1014.5
20260902190106 76 0 1.0 7.0 0.00 0.00 0.00 59 1014.8
20260902184601 76 355 1.0 6.0 0.00 0.00 0.00 58 1014.8
20260902183059 76 45 2.0 7.0 0.00 0.00 0.00 57 1014.9
20260902181558 75 240 0.0 5.0 0.00 0.00 0.00 61 1015.0
20260902180103 75 258 1.0 8.0 0.00 0.00 0.00 61 1014.8
20260902174608 74 0 0.0 8.0 0.00 0.00 0.00 61 1014.9
20260902173105 74 17 0.0 9.0 0.00 0.00 0.00 61 1015.1
20260902171605 73 234 0.0 6.0 0.00 0.00 0.00 66 1015.2
20260902170054 74 0 2.0 9.0 0.00 0.00 0.00 65 1015.4
20260902164606 73 0 2.0 8.0 0.00 0.00 0.00 66 1015.3
20260902163101 73 287 1.0 6.0 0.00 0.00 0.00 67 1015.3
20260902161603 72 0 1.0 11.0 0.00 0.00 0.00 67 1015.2
20260902154602 72 11 2.0 8.0 0.00 0.00 0.00 68 1014.9
20260902153055 72 314 1.0 7.0 0.00 0.00 0.00 69 1015.2
20260902151556 71 57 1.0 4.0 0.00 0.00 0.00 69 1015.1
20260902150052 71 0 0.0 6.0 0.00 0.00 0.00 73 1015.1
20260902144613 69 0 0.0 0.0 0.00 0.00 0.00 77 1015.2
20260902143057 66 0 0.0 0.0 0.00 0.00 0.00 83 1015.4
20260902141602 66 0 0.0 0.0 0.00 0.00 0.00 86 1015.8
20260902140100 65 0 0.0 0.0 0.00 0.00 0.00 87 1015.7
20260902134601 61 0 0.0 0.0 0.00 0.00 0.00 96 1015.6
20260902133056 58 0 0.0 0.0 0.00 0.00 0.00 99 1015.5
20260902131554 56 0 0.0 0.0 0.00 0.00 0.00 98 1015.7
20260902130052 55 0 0.0 0.0 0.00 0.00 0.00 99 1015.6
20260902124604 53 0 0.0 0.0 0.00 0.00 0.00 98 1015.3
20260902123103 52 0 0.0 0.0 0.00 0.00 0.00 98 1015.1
20260902121613 52 0 0.0 0.0 0.00 0.00 0.00 98 1015.0
20260902120108 52 0 0.0 0.0 0.00 0.00 0.00 97 1015.0
20260902114619 52 0 0.0 0.0 0.00 0.00 0.00 97 1014.8
20260902113104 52 0 0.0 0.0 0.00 0.00 0.00 96 1014.7
20260902111605 53 0 0.0 0.0 0.00 0.00 0.00 96 1014.7
20260902110110 54 0 0.0 1.0 0.00 0.00 0.00 97 1014.5
20260902104619 53 0 0.0 0.0 0.00 0.00 0.00 97 1014.7
20260902103116 53 0 0.0 0.0 0.00 0.00 0.00 96 1014.6
20260902101601 53 0 0.0 0.0 0.00 0.00 0.00 97 1014.9
20260902100101 54 0 0.0 0.0 0.00 0.00 0.00 97 1015.0
20260902094600 54 0 0.0 0.0 0.00 0.00 0.00 97 1015.0
20260902093111 54 0 0.0 2.0 0.00 0.00 0.00 97 1014.6
20260902091601 54 0 0.0 0.0 0.00 0.00 0.00 96 1014.5
20260902090101 54 0 0.0 0.0 0.00 0.00 0.00 96 1014.5
20260902084552 54 0 0.0 0.0 0.00 0.00 0.00 96 1014.6
20260902083101 55 0 0.0 0.0 0.00 0.00 0.00 96 1014.4
20260902081559 55 0 0.0 0.0 0.00 0.00 0.00 96 1014.3
20260902080054 55 0 0.0 0.0 0.00 0.00 0.00 95 1014.3
20260902074606 56 0 0.0 0.0 0.00 0.00 0.00 95 1014.2
20260902073107 56 0 0.0 0.0 0.00 0.00 0.00 95 1014.2
20260902071556 56 0 0.0 0.0 0.00 0.00 0.00 95 1014.4
20260902070107 57 0 0.0 0.0 0.00 0.00 0.00 96 1014.3
20260902064551 57 0 0.0 0.0 0.00 0.00 0.00 95 1014.4
20260902063102 57 0 0.0 0.0 0.00 0.00 0.00 95 1014.4
20260902061604 57 0 0.0 0.0 0.00 0.00 0.00 95 1014.4
20260902060116 57 0 0.0 0.0 0.00 0.00 0.00 95 1014.4
20260902054603 57 0 0.0 0.0 0.00 0.00 0.00 95 1014.3
20260902053106 57 0 0.0 0.0 0.00 0.00 0.00 95 1014.5
20260902051606 57 0 0.0 0.0 0.00 0.00 0.00 95 1014.6
20260902050055 57 0 0.0 0.0 0.00 0.00 0.00 94 1015.0
20260902044604 57 0 0.0 0.0 0.00 0.00 0.00 94 1015.0
20260902043106 57 0 0.0 0.0 0.00 0.00 0.00 94 1014.8
20260902041605 58 0 0.0 0.0 0.00 0.00 0.00 93 1014.7
20260902040108 58 0 0.0 0.0 0.00 0.00 0.00 92 1014.4
20260902034603 59 0 0.0 0.0 0.00 0.00 0.00 91 1014.5
20260902033107 59 0 0.0 0.0 0.00 0.00 0.00 92 1014.5
20260902031608 59 0 0.0 0.0 0.00 0.00 0.00 91 1014.5
20260902030051 60 0 0.0 0.0 0.00 0.00 0.00 90 1014.6
20260902024611 61 0 0.0 0.0 0.00 0.00 0.00 89 1014.5
20260902023058 61 0 0.0 0.0 0.00 0.00 0.00 89 1014.4
20260902021553 62 0 0.0 0.0 0.00 0.00 0.00 88 1014.2
20260902020059 63 0 0.0 0.0 0.00 0.00 0.00 87 1014.1
20260902014604 64 0 0.0 0.0 0.00 0.00 0.00 85 1013.9
20260902013059 65 0 0.0 0.0 0.00 0.00 0.00 81 1013.8
20260902011556 66 0 0.0 1.0 0.00 0.00 0.00 80 1013.6
20260902010105 68 0 0.0 2.0 0.00 0.00 0.00 77 1013.4
20260902004603 68 0 0.0 3.0 0.00 0.00 0.00 75 1013.4
20260902003100 69 0 0.0 0.0 0.00 0.00 0.00 75 1013.5
20260902001557 70 0 0.0 0.0 0.00 0.00 0.00 72 1013.5
20260901234613 72 0 0.0 2.0 0.00 0.00 0.00 69 1013.4
20260901233104 73 0 0.0 4.0 0.00 0.00 0.00 67 1013.4
20260901231554 73 0 1.0 4.0 0.00 0.00 0.00 63 1013.3
20260901230105 74 251 1.0 7.0 0.00 0.00 0.00 60 1013.1
20260901224601 75 0 1.0 8.0 0.00 0.00 0.00 58 1013.1
20260901223055 76 218 2.0 8.0 0.00 0.00 0.00 56 1013.1
20260901221554 75 224 2.0 12.0 0.00 0.00 0.00 58 1013.0
20260901220118 76 30 3.0 11.0 0.00 0.00 0.00 55 1012.9
20260901214557 76 0 3.0 10.0 0.00 0.00 0.00 54 1013.0
20260901213112 77 261 3.0 12.0 0.00 0.00 0.00 54 1012.8
20260901211553 77 271 4.0 14.0 0.00 0.00 0.00 55 1012.9
20260901210051 78 217 5.0 11.0 0.00 0.00 0.00 52 1013.0
20260901204602 76 252 5.0 16.0 0.00 0.00 0.00 54 1012.9
20260901203106 76 202 2.0 15.0 0.00 0.00 0.00 54 1013.2
20260901201557 77 250 5.0 16.0 0.00 0.00 0.00 51 1013.0